TimeCDT,TemperatureF,Dew PointF,Humidity,Sea Level PressureIn,VisibilityMPH,Wind Direction,Wind SpeedMPH,Gust SpeedMPH,PrecipitationIn,Events,Conditions,WindDirDegrees,DateUTC
12:54 AM,12.0,8.1,84,30.31,10.0,Calm,Calm,-,N/A,,Clear,0,2013-04-02 05:54:00
1:54 AM,14.0,8.1,77,30.31,10.0,SSW,3.5,-,N/A,,Clear,210,2013-04-02 06:54:00
2:54 AM,12.9,7.0,77,30.32,10.0,Calm,Calm,-,N/A,,Clear,0,2013-04-02 07:54:00
3:54 AM,10.9,6.1,81,30.32,10.0,Calm,Calm,-,N/A,,Clear,0,2013-04-02 08:54:00
4:54 AM,10.0,5.0,80,30.32,10.0,Calm,Calm,-,N/A,,Clear,0,2013-04-02 09:54:00
5:54 AM,5.0,1.0,84,30.34,10.0,Calm,Calm,-,N/A,,Clear,0,2013-04-02 10:54:00
6:54 AM,6.1,1.9,83,30.35,9.0,Calm,Calm,-,N/A,,Clear,0,2013-04-02 11:54:00
7:54 AM,7.0,3.0,84,30.37,10.0,Calm,Calm,-,N/A,,Scattered Clouds,0,2013-04-02 12:54:00
8:54 AM,8.1,5.0,87,30.40,6.0,Calm,Calm,-,N/A,,Clear,0,2013-04-02 13:54:00
9:54 AM,15.1,9.0,77,30.38,10.0,SSE,3.5,-,N/A,,Clear,150,2013-04-02 14:54:00
10:54 AM,21.0,10.9,65,30.38,-9999.0,SE,3.5,-,N/A,,Clear,140,2013-04-02 15:54:00
11:54 AM,24.1,12.9,62,30.38,10.0,East,4.6,-,N/A,,Clear,100,2013-04-02 16:54:00
12:54 PM,25.0,15.1,66,30.39,10.0,East,9.2,-,N/A,,Clear,100,2013-04-02 17:54:00
1:54 PM,26.1,12.9,58,30.38,10.0,ESE,10.4,-,N/A,,Clear,120,2013-04-02 18:54:00
2:54 PM,27.0,12.0,53,30.37,10.0,East,10.4,-,N/A,,Clear,100,2013-04-02 19:54:00
3:54 PM,27.0,15.1,61,30.35,10.0,East,12.7,-,N/A,,Clear,100,2013-04-02 20:54:00
4:54 PM,28.0,17.1,63,30.33,10.0,East,11.5,-,N/A,,Clear,100,2013-04-02 21:54:00
5:54 PM,27.0,19.0,72,30.32,10.0,East,13.8,-,N/A,,Clear,100,2013-04-02 22:54:00
6:54 PM,26.1,19.0,75,30.30,10.0,East,15.0,-,N/A,,Clear,100,2013-04-02 23:54:00
7:54 PM,24.1,18.0,77,30.28,10.0,ESE,16.1,-,N/A,,Clear,110,2013-04-03 00:54:00
8:54 PM,21.9,17.1,82,30.26,10.0,ESE,12.7,-,N/A,,Clear,120,2013-04-03 01:54:00
9:54 PM,21.0,17.1,85,30.24,10.0,ESE,8.1,-,N/A,,Clear,110,2013-04-03 02:54:00
10:54 PM,19.9,15.1,81,30.21,10.0,ESE,10.4,-,N/A,,Clear,110,2013-04-03 03:54:00
11:54 PM,23.0,16.0,74,30.17,10.0,SE,9.2,-,N/A,,Clear,130,2013-04-03 04:54:00